UTOFI Weather Reports


time (UTC)temp
F
wind
direction
speed
knots
gust
knots
rain 1hr
in
rain 24hr
in
rain mn
in
humidity
%
barometer
mb
20260503052711 43 339 9.6 12.2 0.00 0.00 0.00 90 1008.2
20260503050711 42 341 11.3 15.6 0.00 0.00 0.00 90 1007.7
20260503044711 42 344 11.3 13.9 0.00 0.00 0.00 89 1007.5
20260503042711 43 344 10.4 13.9 0.00 0.00 0.00 85 1007.3
20260503040711 43 335 12.2 14.8 0.00 0.00 0.00 86 1007.2
20260503034711 43 324 13.0 19.1 0.00 0.00 0.00 85 1007.4
20260503032711 44 327 13.9 18.2 0.00 0.00 0.00 85 1007.2
20260503030712 44 324 11.3 15.6 0.00 0.00 0.00 84 1006.9
20260503024712 46 327 13.9 20.0 0.00 0.00 0.00 78 1006.7
20260503022711 44 320 10.4 17.4 0.00 0.00 0.00 85 1006.9
20260503020711 45 337 12.2 15.6 0.00 0.00 0.00 83 1006.5
20260503014711 44 325 9.6 13.0 0.00 0.00 0.00 85 1006.5
20260503012711 45 315 8.7 11.3 0.00 0.00 0.00 84 1006.3
20260503010712 45 299 8.7 11.3 0.00 0.00 0.00 82 1006.3
20260503004712 45 288 9.6 12.2 0.00 0.00 0.00 83 1006.2
20260503002712 44 273 11.3 13.0 0.00 0.00 0.00 85 1006.3
20260503000711 44 271 13.0 14.8 0.00 0.00 0.00 85 1006.1
20260502234711 45 269 12.2 14.8 0.00 0.00 0.00 84 1006.0
20260502232711 45 265 13.0 15.6 0.00 0.00 0.00 84 1005.9
20260502230710 45 254 15.6 18.2 0.00 0.00 0.00 84 1006.2
20260502224711 45 244 15.6 17.4 0.00 0.00 0.00 83 1006.2
20260502222711 45 239 16.5 18.2 0.00 0.00 0.00 85 1006.3
20260502220712 44 233 17.4 20.0 0.00 0.00 0.00 86 1006.5
20260502214710 44 229 17.4 20.0 0.00 0.00 0.00 86 1006.6
20260502212710 44 233 15.6 18.2 0.00 0.00 0.00 86 1006.9
20260502210710 44 225 16.5 19.1 0.00 0.00 0.00 86 1006.9
20260502204711 44 224 16.5 18.2 0.00 0.00 0.00 85 1007.0
20260502202710 44 221 16.5 19.1 0.00 0.00 0.00 85 1007.1
20260502200711 45 221 15.6 19.1 0.00 0.00 0.00 84 1007.3
20260502194710 45 218 15.6 18.2 0.00 0.00 0.00 83 1007.4
20260502192710 45 217 16.5 19.1 0.00 0.00 0.00 82 1007.6
20260502190709 45 217 17.4 20.0 0.00 0.00 0.00 81 1007.7
20260502184709 46 214 18.2 21.7 0.00 0.00 0.00 79 1007.7
20260502182710 46 209 16.5 20.0 0.00 0.00 0.00 79 1007.9
20260502180709 46 212 17.4 20.0 0.00 0.00 0.00 77 1008.0
20260502162709 48 218 17.4 20.0 0.00 0.00 0.00 72 1009.1
20260502160709 49 219 18.2 20.9 0.00 0.00 0.00 71 1009.3
20260502150709 50 221 20.0 24.3 0.00 0.00 0.00 67 1010.1
20260502130709 51 229 20.0 23.5 0.00 0.00 0.00 67 1011.0
20260502122708 50 222 20.9 24.3 0.00 0.00 0.00 67 1011.2
20260502120708 51 226 21.7 24.3 0.00 0.00 0.00 66 1011.3
20260502114709 51 227 20.9 24.3 0.00 0.00 0.00 66 1011.5
20260502112708 50 228 21.7 24.3 0.00 0.00 0.00 67 1011.6
20260502110708 50 232 18.2 24.3 0.00 0.00 0.00 67 1011.9
20260502104708 50 230 18.2 20.9 0.00 0.00 0.00 67 1012.0
20260502102708 50 229 16.5 18.2 0.00 0.00 0.00 67 1012.1
20260502100708 49 232 20.9 24.3 0.00 0.00 0.00 69 1012.2
20260502090708 49 245 16.5 20.0 0.00 0.00 0.00 67 1012.3
20260502070707 47 254 15.6 18.2 0.00 0.00 0.00 73 1012.7
20260502064707 47 253 14.8 17.4 0.00 0.00 0.00 74 1012.9
20260502062707 47 250 18.2 21.7 0.00 0.00 0.00 75 1012.9
20260502060707 46 250 18.2 20.9 0.00 0.00 0.00 75 1012.9
20260502054707 46 250 18.2 20.0 0.00 0.00 0.00 76 1012.9